| time (UTC) | temp F | wind direction | speed knots | gust knots | rain 1hr in | rain 24hr in | rain mn in | humidity % | barometer mb |
| 20260903150425 | 88 | 128 | 1.7 | 3.5 | 0.00 | 0.00 | 0.00 | 55 | 1012.3 |
| 20260903145525 | 87 | 161 | 1.7 | 5.2 | 0.00 | 0.00 | 0.00 | 56 | 1012.4 |
| 20260903144625 | 86 | 144 | 1.7 | 4.3 | 0.00 | 0.00 | 0.00 | 57 | 1012.4 |
| 20260903143725 | 86 | 150 | 0.9 | 4.3 | 0.00 | 0.00 | 0.00 | 58 | 1012.4 |
| 20260903142825 | 85 | 136 | 0.9 | 6.1 | 0.00 | 0.00 | 0.00 | 59 | 1012.4 |
| 20260903141925 | 85 | 102 | 0.9 | 5.2 | 0.00 | 0.00 | 0.00 | 60 | 1012.3 |
| 20260903135225 | 84 | 95 | 0.0 | 1.7 | 0.00 | 0.00 | 0.00 | 61 | 1012.0 |
| 20260903134325 | 84 | 95 | 0.0 | 1.7 | 0.00 | 0.00 | 0.00 | 61 | 1011.8 |
| 20260903133425 | 84 | 95 | 0.9 | 1.7 | 0.00 | 0.00 | 0.00 | 61 | 1011.7 |
| 20260903132525 | 84 | 96 | 0.9 | 2.6 | 0.00 | 0.00 | 0.00 | 60 | 1011.5 |
| 20260903131625 | 84 | 96 | 0.9 | 3.5 | 0.00 | 0.00 | 0.00 | 60 | 1011.5 |
| 20260903130725 | 84 | 97 | 0.0 | 3.5 | 0.00 | 0.00 | 0.00 | 59 | 1011.4 |
| 20260903124925 | 84 | 98 | 1.7 | 3.5 | 0.00 | 0.00 | 0.00 | 58 | 1011.2 |
| 20260903124025 | 84 | 103 | 1.7 | 3.5 | 0.00 | 0.00 | 0.00 | 57 | 1011.2 |
| 20260903123125 | 84 | 111 | 0.0 | 5.2 | 0.00 | 0.00 | 0.00 | 57 | 1011.1 |
| 20260903122225 | 84 | 119 | 0.9 | 2.6 | 0.00 | 0.00 | 0.00 | 57 | 1011.0 |
| 20260903121325 | 84 | 120 | 0.0 | 3.5 | 0.00 | 0.00 | 0.00 | 57 | 1010.9 |
| 20260903120425 | 84 | 122 | 0.0 | 0.9 | 0.00 | 0.00 | 0.00 | 56 | 1010.8 |
| 20260903115524 | 84 | 122 | 0.0 | 0.9 | 0.00 | 0.00 | 0.00 | 55 | 1010.7 |
| 20260903114624 | 84 | 122 | 0.0 | 2.6 | 0.00 | 0.00 | 0.00 | 55 | 1010.7 |
| 20260903113724 | 84 | 122 | 0.0 | 0.9 | 0.00 | 0.00 | 0.00 | 55 | 1010.6 |
| 20260903111925 | 85 | 122 | 0.9 | 2.6 | 0.00 | 0.00 | 0.00 | 54 | 1010.6 |
| 20260903111024 | 85 | 122 | 0.9 | 1.7 | 0.00 | 0.00 | 0.00 | 54 | 1010.5 |
| 20260903110125 | 85 | 123 | 0.0 | 1.7 | 0.00 | 0.00 | 0.00 | 54 | 1010.5 |
| 20260903105225 | 84 | 0 | 0.0 | 0.0 | 0.00 | 0.00 | 0.00 | 54 | 1010.5 |
| 20260903103424 | 85 | 123 | 0.0 | 1.7 | 0.00 | 0.00 | 0.00 | 52 | 1010.4 |
| 20260903102524 | 85 | 122 | 0.0 | 0.9 | 0.00 | 0.00 | 0.00 | 52 | 1010.4 |
| 20260903101624 | 85 | 122 | 0.0 | 0.9 | 0.00 | 0.00 | 0.00 | 51 | 1010.3 |
| 20260903100724 | 86 | 123 | 0.9 | 2.6 | 0.00 | 0.00 | 0.00 | 51 | 1010.4 |
| 20260903095824 | 85 | 127 | 0.0 | 2.6 | 0.00 | 0.00 | 0.00 | 51 | 1010.5 |
| 20260903094024 | 85 | 163 | 0.0 | 1.7 | 0.00 | 0.00 | 0.00 | 52 | 1010.5 |
| 20260903091324 | 86 | 164 | 0.0 | 1.7 | 0.00 | 0.00 | 0.00 | 51 | 1010.4 |
| 20260903090424 | 86 | 164 | 0.0 | 0.9 | 0.00 | 0.00 | 0.00 | 51 | 1010.3 |
| 20260903085524 | 86 | 164 | 0.0 | 3.5 | 0.00 | 0.00 | 0.00 | 50 | 1010.2 |
| 20260903084624 | 87 | 163 | 0.0 | 0.9 | 0.00 | 0.00 | 0.00 | 50 | 1010.3 |
| 20260903081924 | 88 | 163 | 0.0 | 3.5 | 0.00 | 0.00 | 0.00 | 49 | 1010.3 |
| 20260903081024 | 88 | 162 | 0.0 | 3.5 | 0.00 | 0.00 | 0.00 | 48 | 1010.3 |
| 20260903080124 | 88 | 162 | 0.0 | 0.9 | 0.00 | 0.00 | 0.00 | 48 | 1010.4 |
| 20260903075224 | 89 | 161 | 0.9 | 3.5 | 0.00 | 0.00 | 0.00 | 47 | 1010.3 |
| 20260903074324 | 89 | 161 | 0.9 | 1.7 | 0.00 | 0.00 | 0.00 | 47 | 1010.3 |
| 20260903073424 | 90 | 161 | 0.0 | 3.5 | 0.00 | 0.00 | 0.00 | 46 | 1010.4 |
| 20260903072524 | 90 | 161 | 0.9 | 1.7 | 0.00 | 0.00 | 0.00 | 44 | 1010.3 |
| 20260903071624 | 90 | 162 | 0.9 | 3.5 | 0.00 | 0.00 | 0.00 | 40 | 1010.3 |
| 20260903070724 | 91 | 184 | 0.9 | 3.5 | 0.00 | 0.00 | 0.00 | 34 | 1010.3 |
| 20260903065824 | 91 | 286 | 1.7 | 3.5 | 0.00 | 0.00 | 0.00 | 27 | 1010.2 |
| 20260903064924 | 92 | 284 | 1.7 | 5.2 | 0.00 | 0.00 | 0.00 | 27 | 1010.0 |
| 20260903064024 | 92 | 272 | 1.7 | 6.1 | 0.00 | 0.00 | 0.00 | 27 | 1010.0 |
| 20260903063124 | 92 | 276 | 1.7 | 6.1 | 0.00 | 0.00 | 0.00 | 27 | 1009.9 |
| 20260903062224 | 93 | 273 | 2.6 | 3.5 | 0.00 | 0.00 | 0.00 | 27 | 1009.9 |
| 20260903061324 | 93 | 267 | 3.5 | 6.1 | 0.00 | 0.00 | 0.00 | 28 | 1010.0 |
| 20260903060424 | 93 | 263 | 3.5 | 7.0 | 0.00 | 0.00 | 0.00 | 29 | 1010.0 |
| 20260903055524 | 93 | 262 | 2.6 | 7.0 | 0.00 | 0.00 | 0.00 | 32 | 1009.9 |
| 20260903054624 | 93 | 262 | 3.5 | 7.0 | 0.00 | 0.00 | 0.00 | 35 | 1009.9 |
| 20260903052824 | 93 | 274 | 0.9 | 2.6 | 0.00 | 0.00 | 0.00 | 39 | 1010.1 |
| 20260903051924 | 93 | 272 | 0.9 | 2.6 | 0.00 | 0.00 | 0.00 | 38 | 1010.0 |
| 20260903051024 | 94 | 269 | 1.7 | 3.5 | 0.00 | 0.00 | 0.00 | 37 | 1010.0 |
| 20260903050124 | 94 | 270 | 1.7 | 3.5 | 0.00 | 0.00 | 0.00 | 37 | 1010.0 |
| 20260903045224 | 94 | 269 | 1.7 | 3.5 | 0.00 | 0.00 | 0.00 | 37 | 1010.0 |
| 20260903044324 | 94 | 259 | 1.7 | 6.1 | 0.00 | 0.00 | 0.00 | 37 | 1010.0 |
| 20260903043424 | 95 | 272 | 2.6 | 5.2 | 0.00 | 0.00 | 0.00 | 37 | 1010.0 |
| 20260903041624 | 95 | 257 | 2.6 | 6.1 | 0.00 | 0.00 | 0.00 | 36 | 1009.9 |
| 20260903035824 | 96 | 272 | 2.6 | 7.0 | 0.00 | 0.00 | 0.00 | 36 | 1009.8 |
| 20260903034024 | 96 | 275 | 3.5 | 7.0 | 0.00 | 0.00 | 0.00 | 34 | 1009.5 |
| 20260903033124 | 96 | 272 | 2.6 | 7.0 | 0.00 | 0.00 | 0.00 | 34 | 1009.4 |
| 20260903032224 | 96 | 273 | 1.7 | 6.1 | 0.00 | 0.00 | 0.00 | 33 | 1009.3 |
| 20260903031324 | 96 | 282 | 2.6 | 3.5 | 0.00 | 0.00 | 0.00 | 33 | 1009.3 |
| 20260903030424 | 96 | 273 | 3.5 | 6.1 | 0.00 | 0.00 | 0.00 | 32 | 1009.3 |
| 20260903025524 | 97 | 264 | 3.5 | 7.8 | 0.00 | 0.00 | 0.00 | 32 | 1009.2 |
| 20260903023724 | 97 | 266 | 4.3 | 7.8 | 0.00 | 0.00 | 0.00 | 32 | 1009.0 |
| 20260903022824 | 97 | 270 | 5.2 | 7.8 | 0.00 | 0.00 | 0.00 | 31 | 1009.0 |
| 20260903021924 | 97 | 268 | 4.3 | 9.6 | 0.00 | 0.00 | 0.00 | 31 | 1008.9 |
| 20260903021024 | 98 | 270 | 4.3 | 7.8 | 0.00 | 0.00 | 0.00 | 32 | 1008.7 |
| 20260903020124 | 98 | 277 | 4.3 | 7.8 | 0.00 | 0.00 | 0.00 | 32 | 1008.6 |
| 20260903015224 | 98 | 286 | 5.2 | 7.8 | 0.00 | 0.00 | 0.00 | 32 | 1008.6 |
| 20260903013424 | 99 | 266 | 4.3 | 10.4 | 0.00 | 0.00 | 0.00 | 31 | 1008.5 |
| 20260903011624 | 100 | 294 | 6.1 | 11.3 | 0.00 | 0.00 | 0.00 | 30 | 1008.4 |
| 20260903010724 | 100 | 282 | 6.1 | 9.6 | 0.00 | 0.00 | 0.00 | 30 | 1008.5 |
| 20260903005824 | 101 | 276 | 4.3 | 11.3 | 0.00 | 0.00 | 0.00 | 29 | 1008.4 |
| 20260903004924 | 100 | 291 | 5.2 | 10.4 | 0.00 | 0.00 | 0.00 | 30 | 1008.4 |
| 20260903004024 | 101 | 298 | 4.3 | 10.4 | 0.00 | 0.00 | 0.00 | 29 | 1008.4 |
| 20260903003124 | 101 | 265 | 5.2 | 9.6 | 0.00 | 0.00 | 0.00 | 28 | 1008.5 |
| 20260903002224 | 102 | 276 | 6.1 | 10.4 | 0.00 | 0.00 | 0.00 | 28 | 1008.5 |
| 20260903000424 | 103 | 262 | 4.3 | 10.4 | 0.00 | 0.00 | 0.00 | 27 | 1008.6 |
| 20260902235524 | 103 | 281 | 5.2 | 10.4 | 0.00 | 0.00 | 0.00 | 27 | 1008.7 |
| 20260902234624 | 103 | 253 | 3.5 | 10.4 | 0.00 | 0.00 | 0.00 | 27 | 1008.7 |
| 20260902233723 | 103 | 277 | 2.6 | 8.7 | 0.00 | 0.00 | 0.00 | 27 | 1008.8 |
| 20260902232824 | 103 | 273 | 5.2 | 9.6 | 0.00 | 0.00 | 0.00 | 26 | 1008.9 |
| 20260902231924 | 103 | 268 | 3.5 | 10.4 | 0.00 | 0.00 | 0.00 | 26 | 1009.1 |
| 20260902231023 | 104 | 256 | 4.3 | 9.6 | 0.00 | 0.00 | 0.00 | 25 | 1009.2 |
| 20260902230123 | 103 | 270 | 3.5 | 12.2 | 0.00 | 0.00 | 0.00 | 26 | 1009.3 |
| 20260902223424 | 103 | 246 | 4.3 | 9.6 | 0.00 | 0.00 | 0.00 | 25 | 1009.6 |
| 20260902221623 | 105 | 285 | 1.7 | 11.3 | 0.00 | 0.00 | 0.00 | 25 | 1009.9 |
| 20260902220724 | 103 | 300 | 2.6 | 3.5 | 0.00 | 0.00 | 0.00 | 26 | 1009.8 |
| 20260902215824 | 103 | 260 | 4.3 | 6.1 | 0.00 | 0.00 | 0.00 | 26 | 1010.0 |
| 20260902214923 | 104 | 288 | 5.2 | 10.4 | 0.00 | 0.00 | 0.00 | 25 | 1010.2 |
| 20260902214023 | 105 | 283 | 6.1 | 11.3 | 0.00 | 0.00 | 0.00 | 24 | 1010.2 |
| 20260902213123 | 105 | 259 | 5.2 | 12.2 | 0.00 | 0.00 | 0.00 | 24 | 1010.2 |
| 20260902212224 | 104 | 184 | 4.3 | 8.7 | 0.00 | 0.00 | 0.00 | 25 | 1010.4 |
| 20260902210423 | 104 | 267 | 4.3 | 8.7 | 0.00 | 0.00 | 0.00 | 26 | 1010.6 |
| 20260902205523 | 104 | 191 | 5.2 | 9.6 | 0.00 | 0.00 | 0.00 | 26 | 1010.9 |
| 20260902204623 | 103 | 193 | 3.5 | 10.4 | 0.00 | 0.00 | 0.00 | 27 | 1011.0 |
| 20260902203723 | 103 | 257 | 3.5 | 7.8 | 0.00 | 0.00 | 0.00 | 27 | 1011.1 |
| 20260902202823 | 104 | 254 | 3.5 | 9.6 | 0.00 | 0.00 | 0.00 | 27 | 1011.3 |
| 20260902201924 | 102 | 257 | 3.5 | 8.7 | 0.00 | 0.00 | 0.00 | 28 | 1011.5 |
| 20260902201023 | 103 | 290 | 3.5 | 8.7 | 0.00 | 0.00 | 0.00 | 27 | 1011.6 |
| 20260902200123 | 102 | 218 | 4.3 | 8.7 | 0.00 | 0.00 | 0.00 | 28 | 1011.9 |
| 20260902195223 | 102 | 178 | 4.3 | 10.4 | 0.00 | 0.00 | 0.00 | 28 | 1012.0 |
| 20260902194323 | 103 | 215 | 2.6 | 8.7 | 0.00 | 0.00 | 0.00 | 27 | 1012.1 |
| 20260902193423 | 101 | 151 | 2.6 | 8.7 | 0.00 | 0.00 | 0.00 | 30 | 1012.2 |
| 20260902192523 | 101 | 169 | 3.5 | 8.7 | 0.00 | 0.00 | 0.00 | 30 | 1012.4 |
| 20260902191623 | 102 | 243 | 4.3 | 8.7 | 0.00 | 0.00 | 0.00 | 29 | 1012.5 |
| 20260902185823 | 99 | 159 | 4.3 | 9.6 | 0.00 | 0.00 | 0.00 | 32 | 1012.8 |
| 20260902184923 | 100 | 194 | 4.3 | 9.6 | 0.00 | 0.00 | 0.00 | 30 | 1013.0 |
| 20260902184023 | 100 | 175 | 3.5 | 12.2 | 0.00 | 0.00 | 0.00 | 30 | 1013.1 |
| 20260902183123 | 100 | 206 | 5.2 | 8.7 | 0.00 | 0.00 | 0.00 | 30 | 1013.2 |
| 20260902182223 | 99 | 176 | 5.2 | 14.8 | 0.00 | 0.00 | 0.00 | 31 | 1013.2 |
| 20260902181323 | 99 | 197 | 4.3 | 9.6 | 0.00 | 0.00 | 0.00 | 30 | 1013.4 |
| 20260902180423 | 98 | 184 | 4.3 | 10.4 | 0.00 | 0.00 | 0.00 | 32 | 1013.4 |
| 20260902174623 | 98 | 188 | 3.5 | 9.6 | 0.00 | 0.00 | 0.00 | 34 | 1013.5 |
| 20260902173723 | 98 | 173 | 3.5 | 11.3 | 0.00 | 0.00 | 0.00 | 31 | 1013.6 |
| 20260902172823 | 98 | 186 | 2.6 | 13.0 | 0.00 | 0.00 | 0.00 | 31 | 1013.6 |
| 20260902171923 | 96 | 189 | 3.5 | 7.0 | 0.00 | 0.00 | 0.00 | 37 | 1013.6 |
| 20260902171023 | 96 | 205 | 2.6 | 7.8 | 0.00 | 0.00 | 0.00 | 38 | 1013.6 |
| 20260902170123 | 96 | 182 | 1.7 | 7.0 | 0.00 | 0.00 | 0.00 | 39 | 1013.5 |
| 20260902165223 | 95 | 182 | 2.6 | 6.1 | 0.00 | 0.00 | 0.00 | 41 | 1013.6 |
| 20260902163423 | 93 | 194 | 2.6 | 6.1 | 0.00 | 0.00 | 0.00 | 46 | 1013.7 |
| 20260902162523 | 93 | 174 | 1.7 | 7.8 | 0.00 | 0.00 | 0.00 | 45 | 1013.7 |
| 20260902160723 | 92 | 173 | 2.6 | 7.0 | 0.00 | 0.00 | 0.00 | 49 | 1013.7 |
| 20260902155823 | 91 | 155 | 3.5 | 7.8 | 0.00 | 0.00 | 0.00 | 49 | 1013.6 |
| 20260902154923 | 91 | 154 | 2.6 | 7.8 | 0.00 | 0.00 | 0.00 | 51 | 1013.4 |
| 20260902154023 | 90 | 160 | 2.6 | 5.2 | 0.00 | 0.00 | 0.00 | 52 | 1013.5 |
| 20260902153123 | 90 | 161 | 2.6 | 7.0 | 0.00 | 0.00 | 0.00 | 53 | 1013.5 |
| 20260902152223 | 89 | 175 | 1.7 | 5.2 | 0.00 | 0.00 | 0.00 | 55 | 1013.4 |